Reading, PA

6:58 PM EST on January 17, 2017 (GMT -0500)
Reading Regional-Spaatz

Weather History for KRDG - December, 2012

Change the Weather History Date:

Tuesday, December 25, 2012

  Actual Average Record
Temperature  
Mean Temperature 37 °F 32 °F  
Max Temperature 43 °F 39 °F 68 °F (1964)
Min Temperature 31 °F 24 °F -4 °F (1980)
Degree Days  
Heating Degree Days 28 33  
Month to date heating degree days 591 759  
Since 1 July heating degree days 1642 1826  
Cooling Degree Days 0 0  
Month to date cooling degree days 0 0  
Year to date cooling degree days 1281 896  
Moisture  
Dew Point 30 °F    
Average Humidity 80    
Maximum Humidity 100    
Minimum Humidity 60    
Precipitation  
Precipitation 0.00 in 0.11 in 1.60 in (2002)
Month to date precipitation 2.43 2.74  
Year to date precipitation 38.35 42.72  
Sea Level Pressure  
Sea Level Pressure 30.09 in    
Wind  
Wind Speed 5 mph (NNW)    
Max Wind Speed 17 mph    
Max Gust Speed 23 mph    
Visibility 6 miles    
Events      
T = Trace of Precipitation, MM = Missing Value Source: NWS Daily Summary

Daily Weather History Graph

Daily Weather History Graph

Search for Another Location

Airport or City:

Trip Planner

Search our weather history database for the weather conditions in past years. The results will help you decide how hot, cold, wet, or windy it might be!

Date:

Astronomy

Dec. 25, 2012 Rise Set
Actual Time 7:25 AM EST 4:43 PM EST
Civil Twilight 6:54 AM EST 5:14 PM EST
Nautical Twilight 6:20 AM EST 5:48 PM EST
Astronomical Twilight 5:47 AM EST 6:21 PM EST
Moon 2:49 PM EST (12/25) 4:55 AM EST (12/25)
Length of Visible Light 10h 19m
Length of Day
9h 17m
Waxing Gibbous, 93% of the Moon is Illuminated
Dec 25
Waxing Gibbous
Dec 28
Full
Jan 4
Last Quarter
Jan 11
New
Jan 18
First Quarter

Hourly Weather History & Observations

Time (EST) Temp. Windchill Dew Point Humidity Pressure Visibility Wind Dir Wind Speed Gust Speed Precip Events Conditions
12:54 AM 33.1 °F - 32.0 °F 96% 29.91 in 1.8 mi Calm Calm - N/A   Overcast
1:05 AM 33.8 °F - 32.0 °F 93% 29.89 in 1.8 mi Calm Calm - N/A   Overcast
1:40 AM 33.8 °F - 32.0 °F 93% 29.90 in 2.0 mi Calm Calm - N/A   Overcast
1:47 AM 33.8 °F - 32.0 °F 93% 29.90 in 2.0 mi Calm Calm - N/A   Overcast
1:54 AM 33.1 °F - 32.0 °F 96% 29.93 in 2.0 mi Calm Calm - N/A   Overcast
2:04 AM 33.8 °F - 32.0 °F 93% 29.91 in 1.8 mi Calm Calm - N/A   Overcast
2:28 AM 33.8 °F - 32.0 °F 93% 29.92 in 2.0 mi Calm Calm - N/A   Overcast
2:54 AM 33.1 °F 30.0 °F 32.0 °F 96% 29.95 in 2.0 mi NNW 3.5 mph - N/A   Overcast
3:54 AM 33.1 °F 30.0 °F 32.0 °F 96% 29.96 in 2.0 mi NW 3.5 mph - N/A   Overcast
4:54 AM 33.1 °F - 33.1 °F 100% 29.99 in 1.8 mi Calm Calm - N/A   Overcast
5:16 AM 33.8 °F - 33.8 °F 100% 29.97 in 2.0 mi Calm Calm - N/A   Overcast
5:30 AM 33.8 °F - 33.8 °F 100% 29.97 in 1.8 mi Calm Calm - N/A   Overcast
5:54 AM 33.1 °F 30.0 °F 33.1 °F 100% 30.01 in 1.2 mi Variable 3.5 mph - N/A   Overcast
6:16 AM 33.8 °F 29.6 °F 32.0 °F 93% 29.99 in 2.0 mi West 4.6 mph - N/A   Overcast
6:54 AM 33.1 °F 26.9 °F 32.0 °F 96% 30.04 in 2.0 mi West 6.9 mph - N/A   Overcast
7:54 AM 33.1 °F 28.7 °F 32.0 °F 96% 30.06 in 2.0 mi West 4.6 mph - N/A   Overcast
8:01 AM 33.8 °F 29.6 °F 32.0 °F 93% 30.04 in 2.0 mi West 4.6 mph - N/A   Overcast
8:54 AM 34.0 °F - 32.0 °F 92% 30.10 in 2.0 mi Calm Calm - N/A   Overcast
9:35 AM 33.8 °F - 33.8 °F 100% 30.09 in 4.0 mi Calm Calm - N/A   Overcast
9:54 AM 34.0 °F - 33.1 °F 96% 30.13 in 3.0 mi Calm Calm - N/A   Mostly Cloudy
10:54 AM 37.0 °F 33.3 °F 32.0 °F 82% 30.14 in 7.0 mi WNW 4.6 mph - N/A   Overcast
11:54 AM 37.9 °F 34.4 °F 33.1 °F 83% 30.11 in 7.0 mi NNW 4.6 mph - N/A   Overcast
12:54 PM 39.0 °F 34.0 °F 33.1 °F 79% 30.14 in 8.0 mi NNW 6.9 mph - N/A   Haze
1:54 PM 42.1 °F 36.1 °F 32.0 °F 67% 30.12 in 10.0 mi NNW 10.4 mph - N/A   Partly Cloudy
3:54 PM 39.9 °F 33.9 °F 28.9 °F 65% 30.16 in 10.0 mi North 9.2 mph - N/A   Overcast
4:03 PM 39.2 °F 33.6 °F 30.2 °F 70% 30.13 in 10.0 mi North 8.1 mph - N/A   Overcast
4:26 PM 39.2 °F 34.2 °F 28.4 °F 65% 30.13 in 10.0 mi North 6.9 mph - N/A   Overcast
4:54 PM 37.0 °F 33.3 °F 28.9 °F 73% 30.19 in 10.0 mi NNW 4.6 mph - N/A   Scattered Clouds
5:54 PM 36.0 °F 30.3 °F 27.0 °F 70% 30.22 in 10.0 mi North 6.9 mph - N/A   Mostly Cloudy
6:54 PM 34.0 °F 28.8 °F 26.1 °F 73% 30.23 in 10.0 mi North 5.8 mph - N/A   Mostly Cloudy
7:07 PM 35.6 °F 29.9 °F 26.6 °F 70% 30.21 in 10.0 mi North 6.9 mph - N/A   Mostly Cloudy
7:54 PM 34.0 °F 26.6 °F 24.1 °F 67% 30.24 in 10.0 mi North 9.2 mph - N/A   Mostly Cloudy
8:54 PM 34.0 °F 27.2 °F 24.1 °F 67% 30.26 in 10.0 mi NNE 8.1 mph - N/A   Overcast
9:54 PM 33.1 °F 24.9 °F 23.0 °F 66% 30.28 in 10.0 mi NE 10.4 mph - N/A   Overcast
10:16 PM 32.0 °F 25.6 °F 21.2 °F 64% 30.26 in 10.0 mi NE 6.9 mph - N/A   Scattered Clouds
10:44 PM 32.0 °F 26.4 °F 21.2 °F 64% 30.26 in 10.0 mi NNE 5.8 mph - N/A   Mostly Cloudy
10:54 PM 32.0 °F 26.4 °F 21.9 °F 66% 30.29 in 10.0 mi NNE 5.8 mph - N/A   Overcast
11:54 PM 30.9 °F 26.2 °F 21.9 °F 69% 30.28 in 10.0 mi North 4.6 mph - N/A   Overcast